Wetterdaten: Mittwoch, 03.09.2014
Datum Zeit Temp. A. Feuchte A. Luftdruck Regen Wind Richtung Richtung Sonnenschein ET UV Solar Taupunkt Windchill Windben Empfang
03.09.2014 00:00 11,7 C 95 % 1018,5 hPa 0,0 l/m 14,0 km/h (3 Bft) SW 226 0 min 0,000 mm 0,0 UV-I 0 W/m 10,9 C 7,6 C 15,8 km/h (3 Bft) 0,00 %
03.09.2014 00:15 11,7 C 96 % 1018,5 hPa 0,0 l/m 13,3 km/h (3 Bft) W-SW 243 0 min 0,000 mm 0,0 UV-I 0 W/m 11,1 C 7,9 C 15,8 km/h (3 Bft) 0,00 %
03.09.2014 00:30 11,7 C 96 % 1018,4 hPa 0,0 l/m 8,3 km/h (2 Bft) W-SW 251 0 min 0,000 mm 0,0 UV-I 0 W/m 11,1 C 10,5 C 11,9 km/h (2 Bft) 0,00 %
03.09.2014 00:45 11,7 C 96 % 1018,6 hPa 0,0 l/m 9,0 km/h (2 Bft) SW 221 0 min 0,000 mm 0,0 UV-I 0 W/m 11,1 C 10,0 C 11,9 km/h (2 Bft) 0,00 %
03.09.2014 01:00 11,6 C 97 % 1018,4 hPa 0,0 l/m 16,6 km/h (3 Bft) S-SW 212 0 min 0,000 mm 0,0 UV-I 0 W/m 11,1 C 6,5 C 19,8 km/h (3 Bft) 0,00 %
03.09.2014 01:15 11,6 C 97 % 1018,5 hPa 0,0 l/m 10,4 km/h (2 Bft) SW 219 0 min 0,000 mm 0,0 UV-I 0 W/m 11,1 C 9,1 C 11,9 km/h (2 Bft) 0,00 %
03.09.2014 01:30 11,6 C 97 % 1018,5 hPa 0,0 l/m 10,8 km/h (2 Bft) W-SW 249 0 min 0,000 mm 0,0 UV-I 0 W/m 11,1 C 8,9 C 15,8 km/h (3 Bft) 0,00 %
03.09.2014 01:45 11,6 C 97 % 1018,5 hPa 0,0 l/m 5,4 km/h (1 Bft) W-SW 255 0 min 0,000 mm 0,0 UV-I 0 W/m 11,1 C 11,6 C 7,9 km/h (2 Bft) 0,00 %
03.09.2014 02:00 11,6 C 97 % 1018,5 hPa 0,0 l/m 5,4 km/h (1 Bft) S 176 0 min 0,000 mm 0,0 UV-I 0 W/m 11,1 C 11,6 C 7,9 km/h (2 Bft) 0,00 %
03.09.2014 02:15 11,5 C 97 % 1018,4 hPa 0,3 l/m 10,4 km/h (2 Bft) W-SW 255 0 min 0,000 mm 0,0 UV-I 0 W/m 11,0 C 9,0 C 15,8 km/h (3 Bft) 0,00 %
03.09.2014 02:30 11,5 C 97 % 1018,5 hPa 0,0 l/m 11,5 km/h (2 Bft) SW 229 0 min 0,000 mm 0,0 UV-I 0 W/m 11,0 C 8,5 C 15,8 km/h (3 Bft) 0,00 %
03.09.2014 02:45 11,5 C 97 % 1018,2 hPa 0,3 l/m 2,9 km/h (1 Bft) S 189 0 min 0,000 mm 0,0 UV-I 0 W/m 11,0 C 11,5 C 4,0 km/h (1 Bft) 0,00 %
03.09.2014 03:00 11,5 C 97 % 1018,2 hPa 0,0 l/m 1,8 km/h (1 Bft) SW 224 0 min 0,000 mm 0,0 UV-I 0 W/m 11,0 C 11,5 C 4,0 km/h (1 Bft) 0,00 %
03.09.2014 03:15 11,5 C 97 % 1018,3 hPa 0,0 l/m 4,7 km/h (1 Bft) SW 220 0 min 0,000 mm 0,0 UV-I 0 W/m 11,0 C 11,5 C 7,9 km/h (2 Bft) 0,00 %
03.09.2014 03:30 11,5 C 97 % 1018,1 hPa 0,3 l/m 5,8 km/h (2 Bft) W-SW 251 0 min 0,000 mm 0,0 UV-I 0 W/m 11,0 C 11,5 C 7,9 km/h (2 Bft) 0,00 %
03.09.2014 03:45 11,5 C 97 % 1018,3 hPa 0,0 l/m 3,2 km/h (1 Bft) S-SW 203 0 min 0,000 mm 0,0 UV-I 0 W/m 11,0 C 11,5 C 4,0 km/h (1 Bft) 0,00 %
03.09.2014 04:00 11,5 C 97 % 1018,2 hPa 0,3 l/m 3,2 km/h (1 Bft) SW 225 0 min 0,000 mm 0,0 UV-I 0 W/m 11,0 C 11,5 C 7,9 km/h (2 Bft) 0,00 %
03.09.2014 04:15 11,5 C 97 % 1018,3 hPa 0,3 l/m 5,4 km/h (1 Bft) SW 226 0 min 0,000 mm 0,0 UV-I 0 W/m 11,0 C 11,5 C 7,9 km/h (2 Bft) 0,00 %
03.09.2014 04:30 11,5 C 97 % 1018,4 hPa 0,0 l/m 4,3 km/h (1 Bft) W-SW 255 0 min 0,000 mm 0,0 UV-I 0 W/m 11,0 C 11,5 C 7,9 km/h (2 Bft) 0,00 %
03.09.2014 04:45 11,5 C 97 % 1018,1 hPa 0,0 l/m 2,2 km/h (1 Bft) W-SW 256 0 min 0,000 mm 0,0 UV-I 0 W/m 11,0 C 11,5 C 4,0 km/h (1 Bft) 0,00 %
03.09.2014 05:00 11,5 C 97 % 1018,4 hPa 0,0 l/m 6,8 km/h (2 Bft) SW 228 0 min 0,000 mm 0,0 UV-I 0 W/m 11,0 C 11,2 C 7,9 km/h (2 Bft) 0,00 %
03.09.2014 05:15 11,5 C 97 % 1018,5 hPa 0,0 l/m 5,8 km/h (2 Bft) SW 229 0 min 0,000 mm 0,0 UV-I 0 W/m 11,0 C 11,5 C 7,9 km/h (2 Bft) 0,00 %
03.09.2014 05:30 11,5 C 97 % 1018,5 hPa 0,0 l/m 1,8 km/h (1 Bft) SW 229 0 min 0,000 mm 0,0 UV-I 0 W/m 11,0 C 11,5 C 4,0 km/h (1 Bft) 0,00 %
03.09.2014 05:45 11,5 C 97 % 1018,4 hPa 0,3 l/m 4,0 km/h (1 Bft) SW 220 0 min 0,000 mm 0,0 UV-I 0 W/m 11,0 C 11,5 C 7,9 km/h (2 Bft) 0,00 %
03.09.2014 06:00 11,5 C 97 % 1018,5 hPa 0,0 l/m 1,4 km/h (1 Bft) SW 229 0 min 0,000 mm 0,0 UV-I 0 W/m 11,0 C 11,5 C 4,0 km/h (1 Bft) 0,00 %
03.09.2014 06:15 11,5 C 97 % 1018,3 hPa 0,0 l/m 4,0 km/h (1 Bft) W-SW 252 0 min 0,000 mm 0,0 UV-I 0 W/m 11,0 C 11,5 C 4,0 km/h (1 Bft) 0,00 %
03.09.2014 06:30 11,4 C 97 % 1018,4 hPa 0,0 l/m 0,7 km/h (0 Bft) S 184 0 min 0,000 mm 0,0 UV-I 0 W/m 10,9 C 11,4 C 4,0 km/h (1 Bft) 0,00 %
03.09.2014 06:45 11,4 C 98 % 1018,5 hPa 0,0 l/m 7,2 km/h (2 Bft) SW 214 0 min 0,000 mm 0,0 UV-I 0 W/m 11,1 C 10,9 C 7,9 km/h (2 Bft) 0,00 %
03.09.2014 07:00 11,4 C 97 % 1018,6 hPa 0,0 l/m 6,8 km/h (2 Bft) SW 224 0 min 0,000 mm 0,0 UV-I 0 W/m 10,9 C 11,1 C 7,9 km/h (2 Bft) 0,00 %
03.09.2014 07:15 11,5 C 97 % 1018,7 hPa 0,0 l/m 1,4 km/h (1 Bft) SW 215 0 min 0,000 mm 0,0 UV-I 6 W/m 11,0 C 11,5 C 4,0 km/h (1 Bft) 0,00 %
03.09.2014 07:30 11,5 C 97 % 1018,7 hPa 0,0 l/m 3,2 km/h (1 Bft) SW 228 0 min 0,000 mm 0,0 UV-I 10 W/m 11,0 C 11,5 C 4,0 km/h (1 Bft) 0,00 %
03.09.2014 07:45 11,6 C 97 % 1018,8 hPa 0,0 l/m 0,4 km/h (0 Bft) S-SW 193 0 min 0,000 mm 0,0 UV-I 16 W/m 11,1 C 11,6 C 4,0 km/h (1 Bft) 0,00 %
03.09.2014 08:00 11,6 C 97 % 1018,6 hPa 0,0 l/m 1,4 km/h (1 Bft) SW 229 0 min 0,000 mm 0,0 UV-I 23 W/m 11,1 C 11,6 C 4,0 km/h (1 Bft) 0,00 %
03.09.2014 08:15 11,6 C 97 % 1018,8 hPa 0,0 l/m 5,4 km/h (1 Bft) SW 217 0 min 0,000 mm 1,0 UV-I 23 W/m 11,1 C 11,6 C 7,9 km/h (2 Bft) 0,00 %
03.09.2014 08:30 11,7 C 97 % 1018,8 hPa 0,0 l/m 2,2 km/h (1 Bft) SW 225 0 min 0,000 mm 1,0 UV-I 40 W/m 11,2 C 11,7 C 4,0 km/h (1 Bft) 0,00 %
03.09.2014 08:45 11,8 C 97 % 1019,0 hPa 0,0 l/m 1,4 km/h (1 Bft) W-SW 251 0 min 0,000 mm 1,0 UV-I 39 W/m 11,3 C 11,8 C 4,0 km/h (1 Bft) 0,00 %
03.09.2014 09:00 11,8 C 97 % 1019,2 hPa 0,0 l/m 0,4 km/h (0 Bft) S-SW 192 0 min 0,000 mm 1,0 UV-I 68 W/m 11,3 C 11,8 C 4,0 km/h (1 Bft) 0,00 %
03.09.2014 09:15 12,0 C 97 % 1019,1 hPa 0,0 l/m 1,8 km/h (1 Bft) S 173 0 min 0,000 mm 1,0 UV-I 109 W/m 11,5 C 12,0 C 4,0 km/h (1 Bft) 0,00 %
03.09.2014 09:30 12,1 C 97 % 1019,0 hPa 0,0 l/m 0,4 km/h (0 Bft) S 182 0 min 0,000 mm 1,0 UV-I 67 W/m 11,6 C 12,1 C 4,0 km/h (1 Bft) 0,00 %
03.09.2014 09:45 12,1 C 97 % 1019,1 hPa 0,0 l/m 1,4 km/h (1 Bft) S 188 0 min 0,000 mm 1,0 UV-I 75 W/m 11,6 C 12,1 C 4,0 km/h (1 Bft) 0,00 %
03.09.2014 10:00 12,3 C 97 % 1019,2 hPa 0,0 l/m 1,4 km/h (1 Bft) S-SW 207 0 min 0,000 mm 1,0 UV-I 92 W/m 11,8 C 12,3 C 4,0 km/h (1 Bft) 0,00 %
03.09.2014 10:15 12,5 C 95 % 1019,0 hPa 0,0 l/m 1,8 km/h (1 Bft) W-SW 256 0 min 0,000 mm 1,0 UV-I 85 W/m 11,7 C 12,5 C 4,0 km/h (1 Bft) 0,00 %
03.09.2014 10:30 12,7 C 95 % 1018,6 hPa 0,0 l/m 0,4 km/h (0 Bft) S 183 0 min 0,000 mm 2,0 UV-I 102 W/m 11,9 C 12,7 C 4,0 km/h (1 Bft) 0,00 %
03.09.2014 10:45 13,0 C 93 % 1019,0 hPa 0,0 l/m 0,0 km/h (0 Bft) S-SW 194 0 min 0,000 mm 1,0 UV-I 99 W/m 11,9 C 13,0 C 0,0 km/h (0 Bft) 0,00 %
03.09.2014 11:00 13,1 C 92 % 1018,8 hPa 0,0 l/m 0,4 km/h (0 Bft) S 187 0 min 0,000 mm 2,0 UV-I 124 W/m 11,8 C 13,1 C 4,0 km/h (1 Bft) 0,00 %
03.09.2014 11:15 13,4 C 91 % 1018,7 hPa 0,0 l/m 0,4 km/h (0 Bft) S 170 0 min 0,000 mm 2,0 UV-I 180 W/m 12,0 C 13,4 C 4,0 km/h (1 Bft) 0,00 %
03.09.2014 11:30 13,7 C 91 % 1018,4 hPa 0,0 l/m 0,4 km/h (0 Bft) S-SW 213 0 min 0,000 mm 2,0 UV-I 134 W/m 12,3 C 13,7 C 4,0 km/h (1 Bft) 0,00 %
03.09.2014 11:45 13,5 C 89 % 1018,4 hPa 0,0 l/m 0,4 km/h (0 Bft) W-SW 255 0 min 0,000 mm 2,0 UV-I 147 W/m 11,7 C 13,5 C 4,0 km/h (1 Bft) 0,00 %
03.09.2014 12:00 13,8 C 89 % 1018,1 hPa 0,0 l/m 0,0 km/h (0 Bft) W-SW 251 0 min 0,000 mm 2,0 UV-I 102 W/m 12,0 C 13,8 C 0,0 km/h (0 Bft) 0,00 %
03.09.2014 12:15 14,1 C 88 % 1018,2 hPa 0,0 l/m 0,0 km/h (0 Bft) NO 51 0 min 0,000 mm 2,0 UV-I 213 W/m 12,1 C 14,1 C 0,0 km/h (0 Bft) 0,00 %
03.09.2014 12:30 14,9 C 83 % 1017,9 hPa 0,0 l/m 0,0 km/h (0 Bft) O-NO 62 0 min 0,000 mm 3,0 UV-I 201 W/m 12,0 C 14,9 C 0,0 km/h (0 Bft) 0,00 %
03.09.2014 12:45 16,5 C 79 % 1017,5 hPa 0,0 l/m 0,0 km/h (0 Bft) NO 56 0 min 0,000 mm 3,0 UV-I 154 W/m 12,8 C 16,5 C 0,0 km/h (0 Bft) 0,00 %
03.09.2014 13:00 15,0 C 84 % 1018,0 hPa 0,0 l/m 1,8 km/h (1 Bft) O-NO 70 0 min 0,000 mm 2,0 UV-I 124 W/m 12,3 C 15,0 C 4,0 km/h (1 Bft) 0,00 %
03.09.2014 13:15 15,1 C 82 % 1017,4 hPa 0,0 l/m 0,7 km/h (0 Bft) NO 40 0 min 0,000 mm 2,0 UV-I 274 W/m 12,0 C 15,1 C 4,0 km/h (1 Bft) 0,00 %
03.09.2014 13:30 15,6 C 82 % 1017,6 hPa 0,0 l/m 0,0 km/h (0 Bft) NO 34 0 min 0,000 mm 1,0 UV-I 290 W/m 12,5 C 15,6 C 0,0 km/h (0 Bft) 0,00 %
03.09.2014 13:45 15,7 C 82 % 1017,3 hPa 0,0 l/m 0,0 km/h (0 Bft) NO 39 0 min 0,000 mm 1,0 UV-I 227 W/m 12,6 C 15,7 C 0,0 km/h (0 Bft) 0,00 %
03.09.2014 14:00 15,0 C 83 % 1017,6 hPa 0,0 l/m 2,2 km/h (1 Bft) NO 48 0 min 0,000 mm 1,0 UV-I 209 W/m 12,1 C 15,0 C 4,0 km/h (1 Bft) 0,00 %
03.09.2014 14:15 14,8 C 85 % 1017,7 hPa 0,0 l/m 0,0 km/h (0 Bft) O 84 0 min 0,000 mm 1,0 UV-I 144 W/m 12,3 C 14,8 C 0,0 km/h (0 Bft) 0,00 %
03.09.2014 14:30 14,7 C 85 % 1017,6 hPa 0,0 l/m 1,8 km/h (1 Bft) NO 51 0 min 0,000 mm 1,0 UV-I 134 W/m 12,2 C 14,7 C 4,0 km/h (1 Bft) 0,00 %
03.09.2014 14:45 14,5 C 86 % 1017,6 hPa 0,0 l/m 1,8 km/h (1 Bft) O 82 0 min 0,000 mm 1,0 UV-I 135 W/m 12,2 C 14,5 C 4,0 km/h (1 Bft) 0,00 %
03.09.2014 15:00 14,5 C 87 % 1017,6 hPa 0,0 l/m 1,8 km/h (1 Bft) O 92 0 min 0,000 mm 1,0 UV-I 117 W/m 12,4 C 14,5 C 4,0 km/h (1 Bft) 0,00 %
03.09.2014 15:15 14,5 C 88 % 1017,6 hPa 0,0 l/m 0,4 km/h (0 Bft) O-SO 103 0 min 0,000 mm 1,0 UV-I 129 W/m 12,5 C 14,5 C 4,0 km/h (1 Bft) 0,00 %
03.09.2014 15:30 14,5 C 89 % 1017,3 hPa 0,0 l/m 0,0 km/h (0 Bft) O 101 0 min 0,000 mm 1,0 UV-I 113 W/m 12,7 C 14,5 C 0,0 km/h (0 Bft) 0,00 %
03.09.2014 15:45 14,5 C 89 % 1017,5 hPa 0,0 l/m 2,9 km/h (1 Bft) O 81 0 min 0,000 mm 1,0 UV-I 115 W/m 12,7 C 14,5 C 4,0 km/h (1 Bft) 0,00 %
03.09.2014 16:00 14,5 C 88 % 1017,4 hPa 0,0 l/m 2,2 km/h (1 Bft) O 94 0 min 0,000 mm 1,0 UV-I 95 W/m 12,5 C 14,5 C 4,0 km/h (1 Bft) 0,00 %
03.09.2014 16:15 14,7 C 89 % 1017,3 hPa 0,0 l/m 2,9 km/h (1 Bft) O 101 0 min 0,000 mm 1,0 UV-I 109 W/m 12,9 C 14,7 C 4,0 km/h (1 Bft) 0,00 %
03.09.2014 16:30 14,5 C 90 % 1017,3 hPa 0,0 l/m 0,0 km/h (0 Bft) O 100 0 min 0,000 mm 1,0 UV-I 119 W/m 12,9 C 14,5 C 0,0 km/h (0 Bft) 0,00 %
03.09.2014 16:45 14,6 C 90 % 1017,2 hPa 0,0 l/m 0,0 km/h (0 Bft) O 93 0 min 0,000 mm 1,0 UV-I 92 W/m 13,0 C 14,6 C 0,0 km/h (0 Bft) 0,00 %
03.09.2014 17:00 14,6 C 88 % 1017,2 hPa 0,0 l/m 0,0 km/h (0 Bft) O 89 0 min 0,000 mm 1,0 UV-I 95 W/m 12,6 C 14,6 C 0,0 km/h (0 Bft) 0,00 %
03.09.2014 17:15 14,6 C 89 % 1017,2 hPa 0,0 l/m 0,0 km/h (0 Bft) O 86 0 min 0,000 mm 1,0 UV-I 91 W/m 12,8 C 14,6 C 0,0 km/h (0 Bft) 0,00 %
03.09.2014 17:30 14,7 C 89 % 1017,3 hPa 0,0 l/m 0,0 km/h (0 Bft) NO 43 0 min 0,000 mm 1,0 UV-I 65 W/m 12,9 C 14,7 C 0,0 km/h (0 Bft) 0,00 %
03.09.2014 17:45 14,6 C 90 % 1017,2 hPa 0,0 l/m 0,7 km/h (0 Bft) O-NO 74 0 min 0,000 mm 0,0 UV-I 61 W/m 13,0 C 14,6 C 4,0 km/h (1 Bft) 0,00 %
03.09.2014 18:00 14,5 C 90 % 1017,3 hPa 0,0 l/m 2,2 km/h (1 Bft) NO 46 0 min 0,000 mm 0,0 UV-I 48 W/m 12,9 C 14,5 C 4,0 km/h (1 Bft) 0,00 %
03.09.2014 18:15 14,5 C 91 % 1017,3 hPa 0,0 l/m 0,7 km/h (0 Bft) O 80 0 min 0,000 mm 0,0 UV-I 38 W/m 13,0 C 14,5 C 4,0 km/h (1 Bft) 0,00 %
03.09.2014 18:30 14,3 C 92 % 1017,3 hPa 0,0 l/m 0,0 km/h (0 Bft) N-NO 24 0 min 0,000 mm 0,0 UV-I 35 W/m 13,0 C 14,3 C 0,0 km/h (0 Bft) 0,00 %
03.09.2014 18:45 14,3 C 93 % 1017,9 hPa 0,0 l/m 0,0 km/h (0 Bft) O-NO 59 0 min 0,000 mm 0,0 UV-I 24 W/m 13,2 C 14,3 C 0,0 km/h (0 Bft) 0,00 %
03.09.2014 19:00 14,2 C 93 % 1017,9 hPa 0,0 l/m 0,4 km/h (0 Bft) O-NO 77 0 min 0,000 mm 0,0 UV-I 10 W/m 13,1 C 14,2 C 4,0 km/h (1 Bft) 0,00 %
03.09.2014 19:15 14,1 C 93 % 1017,9 hPa 0,0 l/m 0,0 km/h (0 Bft) O 97 0 min 0,000 mm 0,0 UV-I 2 W/m 13,0 C 14,1 C 0,0 km/h (0 Bft) 0,00 %
03.09.2014 19:30 14,1 C 94 % 1018,0 hPa 0,0 l/m 0,0 km/h (0 Bft) O 82 0 min 0,000 mm 0,0 UV-I 0 W/m 13,1 C 14,1 C 0,0 km/h (0 Bft) 0,00 %
03.09.2014 19:45 14,1 C 94 % 1018,1 hPa 0,0 l/m 1,8 km/h (1 Bft) O-NO 64 0 min 0,000 mm 0,0 UV-I 0 W/m 13,1 C 14,1 C 4,0 km/h (1 Bft) 0,00 %
03.09.2014 20:00 14,1 C 94 % 1018,0 hPa 0,0 l/m 0,4 km/h (0 Bft) O 100 0 min 0,000 mm 0,0 UV-I 0 W/m 13,1 C 14,1 C 4,0 km/h (1 Bft) 0,00 %
03.09.2014 20:15 14,1 C 94 % 1018,1 hPa 0,0 l/m 0,0 km/h (0 Bft) O-NO 73 0 min 0,000 mm 0,0 UV-I 0 W/m 13,1 C 14,1 C 0,0 km/h (0 Bft) 0,00 %
03.09.2014 20:30 14,0 C 94 % 1018,2 hPa 0,0 l/m 0,0 km/h (0 Bft) O-NO 73 0 min 0,000 mm 0,0 UV-I 0 W/m 13,0 C 14,0 C 0,0 km/h (0 Bft) 0,00 %
03.09.2014 20:45 14,0 C 94 % 1018,1 hPa 0,0 l/m 0,0 km/h (0 Bft) O-SO 109 0 min 0,000 mm 0,0 UV-I 0 W/m 13,0 C 14,0 C 0,0 km/h (0 Bft) 0,00 %
03.09.2014 21:00 14,0 C 94 % 1018,3 hPa 0,0 l/m 0,0 km/h (0 Bft) O 101 0 min 0,000 mm 0,0 UV-I 0 W/m 13,0 C 14,0 C 0,0 km/h (0 Bft) 0,00 %
03.09.2014 21:15 14,0 C 94 % 1018,0 hPa 0,0 l/m 0,0 km/h (0 Bft) NO 50 0 min 0,000 mm 0,0 UV-I 0 W/m 13,0 C 14,0 C 0,0 km/h (0 Bft) 0,00 %
03.09.2014 21:30 13,9 C 94 % 1017,8 hPa 0,0 l/m 0,0 km/h (0 Bft) O 87 0 min 0,000 mm 0,0 UV-I 0 W/m 12,9 C 13,9 C 0,0 km/h (0 Bft) 0,00 %
03.09.2014 21:45 13,9 C 94 % 1018,1 hPa 0,0 l/m 0,0 km/h (0 Bft) NO 45 0 min 0,000 mm 0,0 UV-I 0 W/m 12,9 C 13,9 C 0,0 km/h (0 Bft) 0,00 %
03.09.2014 22:00 13,9 C 94 % 1018,0 hPa 0,0 l/m 0,0 km/h (0 Bft) NO 36 0 min 0,000 mm 0,0 UV-I 0 W/m 12,9 C 13,9 C 0,0 km/h (0 Bft) 0,00 %
03.09.2014 22:15 13,9 C 94 % 1018,0 hPa 0,0 l/m 0,0 km/h (0 Bft) N-NO 28 0 min 0,000 mm 0,0 UV-I 0 W/m 12,9 C 13,9 C 0,0 km/h (0 Bft) 0,00 %
03.09.2014 22:30 13,9 C 95 % 1017,8 hPa 0,0 l/m 0,0 km/h (0 Bft) NO 52 0 min 0,000 mm 0,0 UV-I 0 W/m 13,1 C 13,9 C 0,0 km/h (0 Bft) 0,00 %
03.09.2014 22:45 13,8 C 95 % 1017,7 hPa 0,0 l/m 0,0 km/h (0 Bft) N-NO 20 0 min 0,000 mm 0,0 UV-I 0 W/m 13,0 C 13,8 C 0,0 km/h (0 Bft) 0,00 %
03.09.2014 23:00 13,8 C 95 % 1017,9 hPa 0,0 l/m 0,0 km/h (0 Bft) O 86 0 min 0,000 mm 0,0 UV-I 0 W/m 13,0 C 13,8 C 0,0 km/h (0 Bft) 0,00 %
03.09.2014 23:15 13,9 C 95 % 1017,6 hPa 0,0 l/m 0,0 km/h (0 Bft) O-NO 62 0 min 0,000 mm 0,0 UV-I 0 W/m 13,1 C 13,9 C 0,0 km/h (0 Bft) 0,00 %
03.09.2014 23:30 13,8 C 95 % 1017,8 hPa 0,0 l/m 1,8 km/h (1 Bft) O 81 0 min 0,000 mm 0,0 UV-I 0 W/m 13,0 C 13,8 C 4,0 km/h (1 Bft) 0,00 %
03.09.2014 23:45 13,8 C 95 % 1017,7 hPa 0,0 l/m 3,2 km/h (1 Bft) NO 54 0 min 0,000 mm 0,0 UV-I 0 W/m 13,0 C 13,8 C 4,0 km/h (1 Bft) 0,00 %
_ Min-Zeit 06:30 12:45 16:45 - 10:45 - - - - - - 00:00 01:00 10:45 00:00
Minimum _ 11,4 C 79 % 1017,2 hPa - 0,0 km/h (0 Bft) - - - - - - 10,9 C 6,5 C 0,0 km/h (0 Bft) 0,00 %
_ Max-Zeit 12:45 06:45 09:00 02:15 01:00 - - 00:00 00:00 12:30 13:30 18:45 12:45 01:00 00:00
Maximum _ 16,5 C 98 % 1019,2 hPa 0,3 l/m 16,6 km/h
S-SW (3 Bft)
- - 0 min 0,000 mm 3,0 UV-I 290 W/m 13,2 C 16,5 C 19,8 km/h
S-SW (3 Bft)
0,00 %
Durchschnitt _ 13,1 C 93 % 1018,1 hPa #1,8 l/m 2,4 km/h (1 Bft) SW - #0 min. #0,000 mm 1,3 UV-I 102 W/m 12,0 C 12,9 C 4,1 km/h (1 Bft) 0,00 %